This demonstration page uses our WeatherBlox Daily Observations layout. Learn more.

Left ArrowRight Arrow

39.29038, -76.61219

Hourly Observations for February 1, 2015

Temp ( °F °C ) Dew Point ( °F °C ) Humidity (%) Winds ( mph kmh ) Pressure ( in mb ) Visibility ( mi km ) Precip ( " mm )
12:54 am 00:54 undefined 27 -2.8 12 -11.1 53 53 undefined N/A 30.27 1025 N/A 0.00 0.00
1:54 am 01:54 undefined 25 -3.9 14 -10 63 63 undefined N/A 30.27 1025 N/A 0.00 0.00
2:54 am 02:54 undefined 26 -3.3 11 -11.7 53 53 undefined N/A 30.26 1025 N/A 0.00 0.00
3:54 am 03:54 undefined 26 -3.3 13 -10.6 57 57 undefined N/A 30.26 1025 N/A 0.00 0.00
4:54 am 04:54 undefined 25 -3.9 13 -10.6 60 60 undefined N/A 30.27 1025 N/A 0.00 0.00
5:54 am 05:54 undefined 26 -3.3 12 -11.1 55 55 undefined N/A 30.27 1025 N/A 0.00 0.00
6:54 am 06:54 undefined 27 -2.8 14 -10 58 58 undefined N/A 30.28 1025 N/A 0.00 0.00
7:54 am 07:54 undefined 28 -2.2 14 -10 56 56 undefined N/A 30.28 1026 N/A 0.00 0.00
8:54 am 08:54 undefined 31 -0.6 15 -9.4 52 52 undefined N/A 30.28 1025 N/A 0.00 0.00
9:54 am 09:54 undefined 33 0.6 14 -10 45 45 undefined N/A 30.27 1025 N/A 0.00 0.00
10:54 am 10:54 undefined 37 2.8 15 -9.4 41 41 undefined N/A 30.26 1025 N/A 0.00 0.00
11:54 am 11:54 undefined 37 2.8 18 -7.8 46 46 undefined N/A 30.22 1023 N/A 0.00 0.00
12:54 pm 12:54 undefined 37 2.8 20 -6.7 50 50 undefined N/A 30.19 1022 N/A 0.00 0.00
1:54 pm 13:54 undefined 39 3.9 14 -10 36 36 undefined N/A 30.16 1021 N/A 0.00 0.00
2:54 pm 14:54 undefined 38 3.3 20 -6.7 48 48 undefined N/A 30.13 1020 N/A 0.00 0.00
3:54 pm 15:54 undefined 37 2.8 20 -6.7 50 50 undefined N/A 30.11 1020 N/A 0.00 0.00
4:54 pm 16:54 undefined 37 2.8 24 -4.4 59 59 undefined N/A 30.09 1019 N/A 0.00 0.00
5:54 pm 17:54 undefined 37 2.8 18 -7.8 46 46 undefined N/A 30.09 1019 N/A 0.00 0.00
6:54 pm 18:54 undefined 29 -1.7 6 -14.4 38 38 undefined N/A 30.28 1025 N/A 0.00 0.00
7:54 pm 19:54 undefined 37 2.8 22 -5.6 54 54 undefined N/A 30.03 1017 N/A 0.00 0.00
8:54 pm 20:54 undefined 37 2.8 24 -4.4 59 59 undefined N/A 29.98 1015 N/A 0.00 0.00
9:54 pm 21:54 undefined 36 2.2 24 -4.4 62 62 undefined N/A 29.96 1014 N/A 0.00 0.00
10:54 pm 22:54 undefined 32 0 29 -1.7 88 88 undefined N/A 29.91 1013 N/A 0.03 0.76
11:54 pm 23:54 undefined 33 0.6 30 -1.1 89 89 undefined N/A 29.83 1010 N/A 0.06 1.52

Powered by AerisWeather